Location: Pilipovskiye Korichintsy
(49.1833°N, 27.4667°E)
Time: 22:07:42
(UTC+00:00)

CZ-4B R/B - Pass Details

Date: 14 July 2020
Orbit: 702 x 803 km, 98.9° (Epoch: 10 August)

Event Time Altitude Azimuth Distance (km) Brightness Sun altitude
Rises 00:37:48 0° 13° (NNE) 3,260 8.2 -12.5°
Reaches altitude 10° 00:40:09 10° 11° (NNE) 2,313 7.2 -12.3°
Maximum altitude 00:45:13 71° 289° (WNW) 795 3.5 -11.8°
Enters shadow 00:49:14 15° 207° (SSW) 1,895 4.9 -11.4°
